Вернуться в каталог

FENGYUN 1C DEB

АктивенSSO
NORAD 32167·DEBRIS·🇨🇳 China

Запущен May 10, 1999 с Taiyuan Satellite Launch Center

Loading…

Ближайшие Пролёты (ближайшие 24 часа)

TLE

СвежийSource: Space-Track

Эпоха: Sep 13, 2026, 04:45 UTC

1 32167U 99025CTM 26256.19843149  .00000704  00000-0  24488-3 0  9994
2 32167  98.4921 249.4966 0161807 326.3144  32.7836 14.31526055666010

Отслеживайте FENGYUN 1C DEB в реальном времени с AllMySat

Download on the App Store